Location: LDNL
(36.4545°S, 141.6685°E)
Time: 05:09:23
(UTC+10:00)

Courier 1B Rocket - Pass Details

Date: 28 May 2024
Orbit: 920 x 1201 km, 28.2° (Epoch: 16 June)

Event Time Altitude Azimuth Distance (km) Brightness Sun altitude
Exits shadow 04:19:40 37° 31° (NNE) 1,771 6.4 -38.5°
Drops below altitude 10° 04:24:53 10° 63° (ENE) 3,133 8.2 -37.4°
Enters shadow 05:31:03 -60° 247° (WSW) 12,159 10.6 -24.2°
